CAPE
1593 1738 1265 785 10 14 61 90 60 11 0 0 0 4 6 3 0 0 0 0 14 50 45 44 59 46 37 37 7 0 0 0 0 0 0 0 0 0 0 0 0 0 0
1586 1746 1323 283 173 173 63 26 2 0 0 14 77 61 16 0 0 22 1 0 50 64 66 48 48 32 30 80 63 52 46 27 4 0 0 0 0 0 0 0 0 0 0
1447 1708 1430 617 166 192 202 12 8 0 2 33 14 2 0 0 0 2 0 0 5 38 98 71 63 67 37 66 115 135 128 103 59 27 0 0 0 0 0 0 0 0 0
1451 1683 1666 1225 295 281 322 169 101 50 52 38 29 6 0 0 69 38 9 38 84 123 95 99 82 61 33 84 89 107 153 132 55 33 0 0 0 0 0 0 0 0 0
1442 1640 1835 1456 746 358 381 215 123 106 78 70 60 39 14 47 283 136 47 182 160 63 52 42 35 70 99 74 57 105 85 76 81 49 15 0 0 0 0 0 0 1 0
1440 1567 1715 876 561 450 331 64 70 135 143 100 150 181 143 287 308 105 196 191 77 55 42 14 0 5 10 57 189 206 160 136 63 30 16 0 0 0 0 0 0 0 0
1419 1478 1480 1192 460 388 112 54 98 155 197 184 247 403 325 337 343 113 141 112 64 55 35 23 9 11 13 18 35 75 87 84 65 30 4 0 0 0 0 5 1 0 0
1391 1406 1488 758 593 426 160 252 166 235 271 309 380 466 500 441 191 102 95 159 97 71 31 28 12 0 5 19 65 27 4 0 0 0 0 0 0 0 8 21 4 1 13
1373 1359 1295 792 731 307 303 323 308 358 455 512 461 530 521 422 157 36 62 140 85 21 22 27 4 0 0 18 23 2 0 0 0 0 0 0 0 1 35 4 3 2 0
1522 1434 1492 1190 815 321 392 362 448 480 534 597 650 612 479 267 44 72 88 46 23 9 12 34 11 0 2 14 12 0 0 0 0 0 0 0 0 0 0 7 0 0 0
1663 1520 1541 1124 552 509 504 490 424 430 522 594 516 449 310 93 37 57 45 0 0 1 16 15 0 0 0 1 0 0 0 0 0 0 0 0 0 0 0 3 4 6 0
1584 1407 1334 880 548 489 528 467 19 24 216 356 360 235 112 39 22 53 42 47 9 0 0 0 0 0 0 0 0 2 1 0 0 0 0 0 0 0 0 0 15 4 14
1452 1306 1017 556 426 314 274 52 5 5 167 414 153 104 45 2 41 49 51 0 0 0 0 0 1 0 0 0 6 2 0 0 0 0 0 0 0 0 0 0 0 34 146
997 887 648 283 43 57 7 0 23 57 318 217 114 80 17 42 40 5 0 0 0 0 0 0 1 1 0 3 2 0 0 0 0 0 0 0 0 0 0 0 0 14 260
445 418 167 40 8 1 0 0 146 279 260 208 46 0 0 0 0 0 0 0 0 0 0 4 1 0 1 1 0 0 0 0 0 0 0 0 0 0 0 0 0 2 120
147 35 5 11 0 0 1 72 248 316 216 62 0 0 0 0 0 0 0 0 0 0 1 2 0 0 0 0 0 0 0 0 0 0 0 0 0 0 2 0 0 0 131
0 0 0 0 0 7 76 150 252 58 50 0 0 0 0 0 0 0 0 0 0 1 0 0 0 0 0 0 0 0 0 0 0 0 0 0 0 0 2 0 0 0 0
0 0 6 74 76 62 89 178 66 50 14 0 0 0 0 0 0 0 0 0 0 4 0 0 0 0 0 0 0 0 0 0 0 0 0 0 0 0 0 3 0 0 0
128 167 135 136 216 246 167 74 41 41 28 7 0 0 0 0 0 0 0 0 0 4 0 0 0 0 0 0 0 0 0 0 0 0 0 0 0 0 0 0 11 0 15
80 49 52 67 109 100 47 55 47 46 39 5 0 0 0 0 0 0 0 0 0 0 0 0 0 0 0 0 0 0 0 0 0 0 0 0 0 0 0 0 9 7 17
0 1 54 176 206 154 119 108 81 56 39 3 0 2 2 0 0 0 0 0 0 0 0 0 0 0 0 0 0 0 0 0 0 0 0 0 0 0 0 0 0 3 7
82 113 128 144 235 185 110 82 38 36 14 8 9 14 6 5 0 0 0 0 0 0 0 0 0 0 0 0 0 0 0 0 0 0 0 0 0 0 0 0 0 1 1
135 143 146 127 152 111 84 32 17 13 14 6 15 23 4 3 2 0 0 0 0 0 0 0 0 0 0 0 0 0 0 0 0 0 0 0 0 0 0 0 0 0 0
121 61 96 129 107 69 40 29 24 25 17 0 18 24 26 5 0 0 0 0 0 0 0 0 0 0 0 0 0 0 0 0 0 0 0 0 0 0 0 0 0 0 0
20 44 1 0 2 8 21 13 7 0 0 0 15 26 18 3 0 0 0 0 0 0 0 0 0 0 0 0 0 0 0 0 0 0 0 0 0 0 0 0 0 0 0
0 0 2 2 1 0 0 0 0 0 0 0 0 6 5 0 0 0 0 0 0 0 0 0 0 0 0 0 0 0 0 0 0 0 0 0 0 0 0 0 0 0 0
CIN
-150 -118 -109 -104 -10 -20 -313 -262 -257 -315 -0 -0 -0 -160 -147 -200 -0 -0 -0 -0 -14 -3 -4 -72 -7 -13 -16 -23 -7 -0 -0 -0 -0 -0 -0 -0 -0 -0 -0 -0 -0 -0 -0
-156 -122 -115 -139 -14 -15 -209 -348 -284 -11 -0 -270 -174 -179 -214 -0 -0 -150 -2 -0 -67 -82 -12 -15 -33 -28 -21 -22 -17 -6 -2 -2 -1 -0 -0 -0 -0 -0 -0 -0 -0 -0 -0
-191 -120 -103 -91 -19 -45 -13 -292 -302 -0 -199 -205 -247 -117 -0 -0 -0 -9 -0 -0 -3 -18 -21 -21 -21 -14 -23 -22 -18 -5 -2 -1 -1 -0 -0 -0 -0 -0 -0 -0 -0 -0 -0
-217 -126 -89 -71 -25 -98 -161 -189 -226 -211 -224 -211 -198 -147 -0 -0 -54 -90 -13 -29 -59 -18 -31 -34 -32 -40 -41 -26 -31 -20 -17 -14 -5 -5 -0 -0 -0 -0 -0 -0 -0 -0 -0
-225 -141 -87 -79 -36 -175 -159 -197 -214 -168 -203 -143 -169 -155 -95 -61 -33 -38 -58 -28 -30 -47 -56 -50 -61 -58 -83 -58 -40 -50 -57 -53 -24 -4 -2 -0 -0 -0 -0 -0 -0 -0 -0
-251 -180 -75 -39 -22 -122 -113 -27 -206 -142 -154 -131 -121 -91 -87 -43 -26 -53 -42 -21 -18 -14 -16 -23 -0 -28 -58 -109 -94 -86 -56 -25 -18 -11 -8 -0 -0 -0 -0 -0 -0 -0 -0
-273 -186 -71 -63 -40 -79 -50 -68 -180 -170 -147 -121 -116 -53 -59 -36 -16 -34 -39 -24 -20 -18 -8 -15 -73 -85 -111 -97 -47 -71 -53 -54 -33 -16 -13 -0 -0 -0 -0 -0 -3 -0 -0
-253 -167 -82 -13 -39 -39 -91 -65 -178 -146 -155 -100 -81 -43 -25 -25 -37 -105 -29 -28 -32 -34 -50 -1 -1 -0 -79 -52 -43 -47 -18 -0 -0 -0 -0 -0 -0 -0 -4 -0 -0 -0 -0
-217 -165 -90 -38 -49 -132 -125 -106 -112 -123 -92 -72 -56 -31 -38 -23 -58 -154 -68 -41 -46 -17 -90 -1 -7 -0 -7 -36 -31 -12 -0 -0 -0 -0 -0 -0 -0 -16 -1 -0 -1 -1 -0
-63 -62 -59 -37 -57 -170 -114 -152 -87 -87 -64 -50 -53 -43 -40 -47 -89 -54 -20 -37 -32 -17 -12 -2 -4 -0 -9 -52 -26 -0 -0 -0 -0 -0 -0 -0 -0 -3 -0 -0 -0 -0 -0
-44 -53 -34 -38 -85 -123 -70 -63 -51 -27 -22 -17 -43 -28 -27 -26 -132 -73 -62 -0 -0 -3 -5 -12 -0 -0 -0 -27 -8 -0 -0 -0 -0 -0 -0 -0 -0 -0 -0 -0 -0 -0 -0
-53 -45 -51 -44 -77 -82 -47 -38 -71 -67 -17 -31 -48 -31 -64 -20 -113 -55 -30 -15 -4 -0 -0 -0 -0 -0 -0 -0 -0 -0 -0 -0 -0 -0 -0 -0 -0 -0 -0 -0 -0 -0 -44
-65 -47 -53 -54 -71 -56 -25 -8 -3 -294 -102 -12 -22 -26 -56 -141 -48 -24 -5 -0 -0 -0 -0 -0 -2 -2 -0 -0 -1 -0 -0 -0 -0 -0 -0 -0 -0 -0 -0 -0 -0 -1 -0
-50 -44 -28 -33 -20 -36 -56 -0 -343 -218 -11 -13 -9 -19 -80 -47 -28 -7 -0 -0 -0 -0 -0 -0 -4 -32 -0 -0 -0 -0 -0 -0 -0 -0 -0 -0 -0 -2 -0 -0 -0 -0 -0
-43 -25 -13 -5 -15 -8 -0 -12 -128 -52 -11 -12 -15 -0 -0 -0 -0 -0 -0 -0 -0 -0 -0 -3 -44 -0 -1 -0 -0 -0 -0 -0 -0 -0 -0 -0 -0 -0 -0 -0 -0 -0 -0
-53 -21 -15 -58 -0 -0 -106 -133 -53 -6 -15 -15 -0 -0 -0 -0 -0 -0 -0 -0 -0 -0 -1 -0 -0 -0 -0 -0 -0 -0 -0 -0 -0 -0 -0 -0 -0 -0 -18 -0 -0 -0 -0
-1 -0 -0 -0 -0 -158 -137 -93 -36 -21 -11 -0 -0 -0 -0 -0 -0 -0 -0 -0 -0 -0 -0 -0 -0 -0 -0 -0 -0 -0 -0 -0 -0 -0 -0 -0 -0 -0 -23 -0 -0 -0 -0
-0 -0 -25 -57 -40 -24 -15 -44 -35 -16 -24 -0 -0 -0 -0 -0 -0 -0 -0 -0 -0 -0 -0 -0 -0 -0 -0 -0 -0 -0 -0 -0 -0 -0 -0 -0 -0 -0 -0 -5 -0 -0 -0
-81 -89 -77 -76 -63 -41 -38 -40 -32 -31 -24 -34 -0 -0 -0 -0 -0 -0 -0 -0 -0 -0 -0 -0 -0 -0 -0 -0 -0 -0 -0 -0 -0 -0 -0 -0 -0 -0 -0 -0 -1 -0 -4
-74 -72 -61 -63 -49 -33 -27 -28 -35 -25 -31 -22 -0 -0 -0 -0 -0 -0 -0 -0 -0 -0 -0 -0 -0 -0 -0 -0 -0 -0 -0 -0 -0 -0 -0 -0 -0 -0 -0 -0 -3 -5 -1
-0 -45 -98 -24 -8 -20 -36 -38 -35 -35 -41 -57 -0 -1 -0 -0 -0 -0 -0 -0 -0 -0 -0 -0 -0 -0 -0 -0 -0 -0 -0 -0 -0 -0 -0 -0 -0 -0 -0 -0 -0 -5 -0
-103 -67 -40 -23 -26 -25 -27 -14 -30 -15 -22 -7 -6 -1 -0 -1 -0 -0 -0 -0 -0 -0 -0 -0 -0 -0 -0 -0 -0 -0 -0 -0 -0 -0 -0 -0 -0 -0 -0 -0 -0 -0 -0
-46 -26 -8 -20 -20 -12 -7 -6 -3 -0 -0 -2 -5 -13 -0 -9 -1 -0 -0 -0 -0 -0 -0 -0 -0 -0 -0 -0 -0 -0 -0 -0 -0 -0 -0 -0 -0 -0 -0 -0 -0 -0 -0
-13 -17 -26 -10 -9 -12 -8 -1 -1 -1 -4 -1 -16 -10 -10 -0 -0 -0 -0 -0 -0 -0 -0 -0 -0 -0 -0 -0 -0 -0 -0 -0 -0 -0 -0 -0 -0 -0 -0 -0 -0 -0 -0
-24 -14 -7 -0 -1 -26 -9 -9 -7 -0 -0 -0 -15 -7 -8 -2 -0 -0 -0 -0 -0 -0 -0 -0 -0 -0 -0 -0 -0 -0 -0 -0 -0 -0 -0 -0 -0 -0 -0 -0 -0 -0 -0
-0 -0 -1 -0 -0 -0 -0 -0 -0 -0 -0 -0 -0 -13 -11 -0 -0 -0 -0 -0 -0 -0 -0 -0 -0 -0 -0 -0 -0 -0 -0 -0 -0 -0 -0 -0 -0 -0 -0 -0 -0 -0 -0
Wind_Speed
33 34 35 36 nan nan nan nan nan nan nan nan nan nan nan nan nan nan nan nan nan nan nan nan nan nan nan nan nan nan nan nan nan nan nan nan nan nan nan nan nan nan nan
33 36 37 38 38 38 nan nan nan nan nan nan nan nan nan nan nan nan nan nan nan nan nan nan nan nan nan nan nan nan nan nan nan nan nan nan nan nan nan nan nan nan nan
36 36 35 35 35 35 37 nan nan nan nan nan nan nan nan nan nan nan nan nan nan nan nan nan nan nan nan nan 40 43 47 49 nan nan nan nan nan nan nan nan nan nan nan
44 43 41 42 35 36 40 35 38 nan nan nan nan nan nan nan nan nan nan nan nan 42 nan nan nan nan nan nan nan 42 39 37 nan nan nan nan nan nan nan nan nan nan nan
48 47 45 42 37 34 42 47 41 43 nan nan nan nan nan nan 39 42 nan 44 44 nan nan nan nan nan nan nan nan 40 nan nan nan nan nan nan nan nan nan nan nan nan nan
47 47 48 38 28 34 34 nan nan 46 38 41 41 41 41 36 38 41 42 47 nan nan nan nan nan nan nan nan 39 31 34 39 nan nan nan nan nan nan nan nan nan nan nan
48 52 50 58 39 47 38 nan nan 51 46 44 46 43 36 35 36 47 30 41 nan nan nan nan nan nan nan nan nan nan nan nan nan nan nan nan nan nan nan nan nan nan nan
53 53 52 40 40 40 50 49 43 51 45 46 47 43 37 37 38 25 nan 37 nan nan nan nan nan nan nan nan nan nan nan nan nan nan nan nan nan nan nan nan nan nan nan
46 53 50 48 44 46 49 47 49 57 57 42 48 46 42 35 37 nan nan 40 nan nan nan nan nan nan nan nan nan nan nan nan nan nan nan nan nan nan nan nan nan nan nan
48 50 48 44 43 44 42 43 53 68 59 42 45 42 37 36 nan nan nan nan nan nan nan nan nan nan nan nan nan nan nan nan nan nan nan nan nan nan nan nan nan nan nan
57 53 53 51 50 48 50 55 57 55 55 35 38 40 38 nan nan nan nan nan nan nan nan nan nan nan nan nan nan nan nan nan nan nan nan nan nan nan nan nan nan nan nan
57 56 52 45 44 49 52 43 nan nan 11 39 43 37 41 nan nan nan nan nan nan nan nan nan nan nan nan nan nan nan nan nan nan nan nan nan nan nan nan nan nan nan nan
57 54 49 46 45 42 45 nan nan nan 56 38 33 49 nan nan nan nan nan nan nan nan nan nan nan nan nan nan nan nan nan nan nan nan nan nan nan nan nan nan nan nan 23
53 50 46 45 nan nan nan nan nan nan 38 57 54 nan nan nan nan nan nan nan nan nan nan nan nan nan nan nan nan nan nan nan nan nan nan nan nan nan nan nan nan nan 22
46 43 43 nan nan nan nan nan 55 55 53 55 nan nan nan nan nan nan nan nan nan nan nan nan nan nan nan nan nan nan nan nan nan nan nan nan nan nan nan nan nan nan 20
52 nan nan nan nan nan nan nan 60 62 49 nan nan nan nan nan nan nan nan nan nan nan nan nan nan nan nan nan nan nan nan nan nan nan nan nan nan nan nan nan nan nan 20
nan nan nan nan nan nan nan 56 61 nan nan nan nan nan nan nan nan nan nan nan nan nan nan nan nan nan nan nan nan nan nan nan nan nan nan nan nan nan nan nan nan nan nan
nan nan nan nan nan nan nan 52 nan nan nan nan nan nan nan nan nan nan nan nan nan nan nan nan nan nan nan nan nan nan nan nan nan nan nan nan nan nan nan nan nan nan nan
58 59 57 55 57 49 49 nan nan nan nan nan nan nan nan nan nan nan nan nan nan nan nan nan nan nan nan nan nan nan nan nan nan nan nan nan nan nan nan nan nan nan nan
nan nan nan nan 54 57 nan nan nan nan nan nan nan nan nan nan nan nan nan nan nan nan nan nan nan nan nan nan nan nan nan nan nan nan nan nan nan nan nan nan nan nan nan
nan nan nan 55 56 53 50 50 nan nan nan nan nan nan nan nan nan nan nan nan nan nan nan nan nan nan nan nan nan nan nan nan nan nan nan nan nan nan nan nan nan nan nan
nan 46 48 48 44 45 45 nan nan nan nan nan nan nan nan nan nan nan nan nan nan nan nan nan nan nan nan nan nan nan nan nan nan nan nan nan nan nan nan nan nan nan nan
43 42 43 43 43 44 nan nan nan nan nan nan nan nan nan nan nan nan nan nan nan nan nan nan nan nan nan nan nan nan nan nan nan nan nan nan nan nan nan nan nan nan nan
39 nan nan 36 32 nan nan nan nan nan nan nan nan nan nan nan nan nan nan nan nan nan nan nan nan nan nan nan nan nan nan nan nan nan nan nan nan nan nan nan nan nan nan
nan nan nan nan nan nan nan nan nan nan nan nan nan nan nan nan nan nan nan nan nan nan nan nan nan nan nan nan nan nan nan nan nan nan nan nan nan nan nan nan nan nan nan
nan nan nan nan nan nan nan nan nan nan nan nan nan nan nan nan nan nan nan nan nan nan nan nan nan nan nan nan nan nan nan nan nan nan nan nan nan nan nan nan nan nan nan
Wind_Direction
315 308 309 309 nan nan nan nan nan nan nan nan nan nan nan nan nan nan nan nan nan nan nan nan nan nan nan nan nan nan nan nan nan nan nan nan nan nan nan nan nan nan nan
316 310 311 306 307 305 nan nan nan nan nan nan nan nan nan nan nan nan nan nan nan nan nan nan nan nan nan nan nan nan nan nan nan nan nan nan nan nan nan nan nan nan nan
326 320 307 303 302 303 304 nan nan nan nan nan nan nan nan nan nan nan nan nan nan nan nan nan nan nan nan nan 315 311 307 305 nan nan nan nan nan nan nan nan nan nan nan
327 323 315 309 304 299 301 305 299 nan nan nan nan nan nan nan nan nan nan nan nan 322 nan nan nan nan nan nan nan 319 316 314 nan nan nan nan nan nan nan nan nan nan nan
327 321 322 301 296 297 300 298 298 297 nan nan nan nan nan nan 316 324 nan 323 322 nan nan nan nan nan nan nan nan 313 nan nan nan nan nan nan nan nan nan nan nan nan nan
328 326 300 275 269 298 294 nan nan 299 307 302 302 310 313 315 321 323 318 315 nan nan nan nan nan nan nan nan 319 334 316 307 nan nan nan nan nan nan nan nan nan nan nan
335 319 293 308 309 308 305 nan nan 301 302 300 302 306 315 306 307 324 320 311 nan nan nan nan nan nan nan nan nan nan nan nan nan nan nan nan nan nan nan nan nan nan nan
317 314 307 298 316 303 295 298 298 290 294 292 296 303 300 291 292 296 nan 316 nan nan nan nan nan nan nan nan nan nan nan nan nan nan nan nan nan nan nan nan nan nan nan
314 307 307 305 303 300 300 300 298 291 282 284 287 296 300 313 328 nan nan 315 nan nan nan nan nan nan nan nan nan nan nan nan nan nan nan nan nan nan nan nan nan nan nan
303 301 299 295 297 297 296 297 292 303 280 274 281 293 302 335 nan nan nan nan nan nan nan nan nan nan nan nan nan nan nan nan nan nan nan nan nan nan nan nan nan nan nan
293 292 288 284 284 286 284 298 307 305 267 272 284 281 292 nan nan nan nan nan nan nan nan nan nan nan nan nan nan nan nan nan nan nan nan nan nan nan nan nan nan nan nan
294 291 285 283 285 290 294 294 nan nan 271 300 281 302 322 nan nan nan nan nan nan nan nan nan nan nan nan nan nan nan nan nan nan nan nan nan nan nan nan nan nan nan nan
291 286 285 286 286 294 305 nan nan nan 293 291 273 324 nan nan nan nan nan nan nan nan nan nan nan nan nan nan nan nan nan nan nan nan nan nan nan nan nan nan nan nan 202
285 284 286 286 nan nan nan nan nan nan 299 304 310 nan nan nan nan nan nan nan nan nan nan nan nan nan nan nan nan nan nan nan nan nan nan nan nan nan nan nan nan nan 219
287 299 296 nan nan nan nan nan 292 292 299 303 nan nan nan nan nan nan nan nan nan nan nan nan nan nan nan nan nan nan nan nan nan nan nan nan nan nan nan nan nan nan 213
302 nan nan nan nan nan nan nan 291 285 291 nan nan nan nan nan nan nan nan nan nan nan nan nan nan nan nan nan nan nan nan nan nan nan nan nan nan nan nan nan nan nan 192
nan nan nan nan nan nan nan 301 303 nan nan nan nan nan nan nan nan nan nan nan nan nan nan nan nan nan nan nan nan nan nan nan nan nan nan nan nan nan nan nan nan nan nan
nan nan nan nan nan nan nan 296 nan nan nan nan nan nan nan nan nan nan nan nan nan nan nan nan nan nan nan nan nan nan nan nan nan nan nan nan nan nan nan nan nan nan nan
286 289 295 300 302 301 305 nan nan nan nan nan nan nan nan nan nan nan nan nan nan nan nan nan nan nan nan nan nan nan nan nan nan nan nan nan nan nan nan nan nan nan nan
nan nan nan nan 296 294 nan nan nan nan nan nan nan nan nan nan nan nan nan nan nan nan nan nan nan nan nan nan nan nan nan nan nan nan nan nan nan nan nan nan nan nan nan
nan nan nan 292 294 301 302 298 nan nan nan nan nan nan nan nan nan nan nan nan nan nan nan nan nan nan nan nan nan nan nan nan nan nan nan nan nan nan nan nan nan nan nan
nan 287 290 293 295 295 293 nan nan nan nan nan nan nan nan nan nan nan nan nan nan nan nan nan nan nan nan nan nan nan nan nan nan nan nan nan nan nan nan nan nan nan nan
286 290 291 291 291 289 nan nan nan nan nan nan nan nan nan nan nan nan nan nan nan nan nan nan nan nan nan nan nan nan nan nan nan nan nan nan nan nan nan nan nan nan nan
290 nan nan 292 293 nan nan nan nan nan nan nan nan nan nan nan nan nan nan nan nan nan nan nan nan nan nan nan nan nan nan nan nan nan nan nan nan nan nan nan nan nan nan
nan nan nan nan nan nan nan nan nan nan nan nan nan nan nan nan nan nan nan nan nan nan nan nan nan nan nan nan nan nan nan nan nan nan nan nan nan nan nan nan nan nan nan
nan nan nan nan nan nan nan nan nan nan nan nan nan nan nan nan nan nan nan nan nan nan nan nan nan nan nan nan nan nan nan nan nan nan nan nan nan nan nan nan nan nan nan